Weather History for OTBD - June, 2013

Change the Weather History Date:

Thursday, June 27, 2013

  Actual Average Record
Temperature  
Mean Temperature 102 °F -  
Max Temperature 112 °F 107 °F 114 °F (2002)
Min Temperature 92 °F 84 °F 80 °F (2003)
Cooling Degree Days 37    
Growing Degree Days 52 (Base 50)    
Moisture  
Dew Point 52 °F    
Average Humidity 20    
Maximum Humidity 41    
Minimum Humidity 5    
Precipitation  
Precipitation 0.00 in 0.00 in - ()
Sea Level Pressure  
Sea Level Pressure 29.50 in    
Wind  
Wind Speed 9 mph ()    
Max Wind Speed 21 mph    
Max Gust Speed -    
Visibility 6.5 miles    
Events      
Averages and records for this station are not official NWS values.
T = Trace of Precipitation, MM = Missing Value Source: Averaged Metar Reports

Daily Weather History Graph

Daily Weather History Graph

Search for Another Location

Airport or City:

Trip Planner

Search our weather history database for the weather conditions in past years. The results will help you decide how hot, cold, wet, or windy it might be!

Date:

Astronomy

Jun. 27, 2013 Rise Set
Actual Time 4:45 AM AST 6:27 PM AST
Civil Twilight 4:19 AM AST 6:53 PM AST
Nautical Twilight 3:48 AM AST 7:24 PM AST
Astronomical Twilight 3:16 AM AST 7:57 PM AST
Moon 9:43 PM AST (6/27) 8:52 AM AST (6/27)
Length of Visible Light 14h 33m
Length of Day
13h 42m
Waning Gibbous, 79% of the Moon is Illuminated
Jun 27
Waning Gibbous
Jun 30
Last Quarter
Jul 8
New
Jul 16
First Quarter
Jul 22
Full

Hourly Weather History & Observations

Time (AST) Temp. Heat Index Dew Point Humidity Pressure Visibility Wind Dir Wind Speed Gust Speed Precip Events Conditions
12:00 AM 98.6 °F 96.4 °F 53.6 °F 22% 29.50 in - WSW 5.8 mph - N/A   Clear
1:00 AM 98.6 °F 96.4 °F 53.6 °F 22% 29.47 in - West 4.6 mph - N/A   Clear
2:00 AM 96.8 °F - 51.8 °F 22% 29.47 in - West 8.1 mph - N/A   Clear
3:00 AM 94 °F - 55 °F 18% 29.48 in 7 mi West 8.1 mph - -  
3:00 AM 95.0 °F 93.0 °F 55.4 °F 26% 29.47 in - West 8.1 mph - N/A   Clear
3:30 AM 95.0 °F - 48.2 °F 20% 29.47 in - WSW 8.1 mph - N/A   Clear
4:00 AM 95.0 °F - 50.0 °F 22% 29.47 in - West 9.2 mph - N/A   Clear
5:00 AM 93.2 °F 90.8 °F 53.6 °F 26% 29.47 in - West 11.5 mph - N/A   Clear
5:30 AM 93.2 °F 91.3 °F 55.4 °F 28% 29.50 in - West 10.4 mph - N/A   Clear
6:00 AM 95.0 °F 93.0 °F 55.4 °F 26% 29.50 in - West 9.2 mph - N/A   Clear
6:30 AM 96.8 °F - 51.8 °F 22% 29.50 in - West 10.4 mph - N/A   Clear
7:00 AM 98.6 °F - 51.8 °F 21% 29.50 in - WSW 9.2 mph - N/A   Clear
7:30 AM 100.4 °F - 48.2 °F 17% 29.53 in - WSW 8.1 mph - N/A   Clear
8:00 AM 104.0 °F - 48.2 °F 15% 29.53 in - West 5.8 mph - N/A   Clear
8:30 AM 104.0 °F - 46.4 °F 14% 29.53 in - West 11.5 mph - N/A   Clear
9:00 AM 105 °F - 46 °F 7% 29.56 in 6 mi NW 12.7 mph - -   Clear
9:00 AM 105.8 °F - 46.4 °F 14% 29.53 in - NW 12.7 mph - N/A   Clear
9:30 AM 105.8 °F - 46.4 °F 14% 29.53 in - NW 13.8 mph - N/A   Clear
10:00 AM 105.8 °F - 48.2 °F 14% 29.53 in - WNW 13.8 mph - N/A   Clear
10:30 AM 109.4 °F - 44.6 °F 11% 29.53 in - WNW 12.7 mph - N/A   Clear
11:00 AM 111.2 °F - 39.2 °F 9% 29.53 in - North 16.1 mph - N/A   Clear
11:30 AM 111.2 °F - 41.0 °F 9% 29.53 in - North 17.3 mph - N/A   Clear
12:00 PM 109.4 °F - 42.8 °F 11% 29.50 in - NNE 13.8 mph - N/A   Clear
12:30 PM 111.2 °F - 42.8 °F 10% 29.50 in - North 13.8 mph - N/A   Clear
1:00 PM 109.4 °F - 41.0 °F 10% 29.50 in - North 17.3 mph - N/A   Clear
1:30 PM 109.4 °F - 39.2 °F 9% 29.50 in - NNE 16.1 mph - N/A   Clear
2:00 PM 109.4 °F - 42.8 °F 11% 29.50 in - NNE 16.1 mph - N/A   Clear
3:00 PM 108 °F - 43 °F 5% 29.50 in 7 mi North 18.4 mph - -  
3:00 PM 107.6 °F - 42.8 °F 11% 29.47 in - North 18.4 mph - N/A   Clear
3:30 PM 105.8 °F - 50.0 °F 15% 29.47 in - North 20.7 mph - N/A   Clear
4:00 PM 105.8 °F 104.9 °F 55.4 °F 19% 29.47 in - North 17.3 mph - N/A   Clear
4:30 PM 104.0 °F 104.6 °F 59.0 °F 23% 29.47 in - North 15.0 mph - N/A   Clear
5:00 PM 102.2 °F 103.6 °F 60.8 °F 26% 29.47 in - North 12.7 mph - N/A   Clear
6:00 PM 100.4 °F 103.6 °F 64.4 °F 31% 29.47 in - North 8.1 mph - N/A   Clear
6:30 PM 98.6 °F 102.8 °F 66.2 °F 35% 29.50 in - North 4.6 mph - N/A   Clear
7:00 PM 98.6 °F 100.0 °F 62.6 °F 30% 29.50 in - North 3.5 mph - N/A   Clear
7:30 PM 96.8 °F 100.7 °F 66.2 °F 37% 29.50 in - Variable 1.2 mph - N/A   Clear
8:00 PM 96.8 °F 99.0 °F 64.4 °F 34% 29.50 in - NE 3.5 mph - N/A   Clear
9:00 PM 94 °F - 68 °F 33% 29.51 in 6 mi Calm Calm - -  
9:00 PM 95.0 °F 99.5 °F 68.0 °F 41% 29.50 in - Calm Calm - N/A   Clear
9:30 PM 98.6 °F 98.5 °F 59.0 °F 27% 29.50 in - SW 3.5 mph - N/A   Clear
10:00 PM 98.6 °F 97.6 °F 57.2 °F 25% 29.50 in - SW 4.6 mph - N/A   Clear
10:30 PM 96.8 °F 95.1 °F 55.4 °F 25% 29.47 in - SW 4.6 mph - N/A   Clear
11:00 PM 96.8 °F - 50.0 °F 20% 29.47 in - WSW 4.6 mph - N/A   Clear
11:30 PM 96.8 °F - 50.0 °F 20% 29.47 in - SW 4.6 mph - N/A   Clear